Location: Madrid
(40.4000°N, 3.6830°W)
Time: 08:42:46
(UTC+02:00)

ISS - Pass Details

Date: 26 July 2017
Orbit: 400 x 408 km, 51.6° (Epoch: 21 July)

Event Time Altitude Azimuth Distance (km) Brightness Sun altitude
Rises 22:17:19 0° 239° (WSW) 2,301 0.4 -7.8°
Reaches altitude 10° 22:19:24 10° 243° (WSW) 1,445 -0.6 -8.1°
Maximum altitude 22:22:36 63° 325° (NW) 450 -3.3 -8.6°
Drops below altitude 10° 22:25:50 10° 48° (NE) 1,451 -1.1 -9.1°
Sets 22:27:56 0° 52° (NE) 2,313 -0.2 -9.4°
